Regional Weather Roundup
Issued by NWS

Home | Current Version | Previous Version | Graphics & Text | Print | Product List | Glossary On
Versions: 1 2 3 4 5 6 7 8 9 10 11 12 13 14 15 16 17 18 19 20 21 22 23 24 25 26 27 28 29 30 31 32 33 34 35 36 37 38 39 40 41 42 43 44 45 46 47 48 49 50
000
ASUS43 KMKX 252221
RWRWI

WISCONSIN REGIONAL WEATHER ROUNDUP
NATIONAL WEATHER SERVICE MILWAUKEE/SULLIVAN WI
500 PM CDT MON SEP 25 2017

NOTE: "FAIR" INDICATES FEW OR NO CLOUDS BELOW 12,000 FEET WITH NO
SIGNIFICANT WEATHER AND/OR OBSTRUCTIONS TO VISIBILITY.

WIZ001-002-006>008-014>016-023>028-252300-
NORTHWEST WISCONSIN

CITY           SKY/WX    TMP DP  RH WIND       PRES   REMARKS
SUPERIOR ARPT  CLOUDY    60  55  83 NE3       29.99S
ASHLAND        CLOUDY    59  57  93 N8        29.98R
HAYWARD        HVY RAIN  59  57  93 N6        29.99R FOG
SIREN          CLOUDY    58  55  89 N5        30.00R
CUMBERLAND     CLOUDY    59  55  88 N10       29.98R
RICE LAKE      CLOUDY    64  60  88 NW7       29.97R
CHETEK         RAIN      64  63  96 N9        29.95R
LADYSMITH      LGT RAIN  67  65  94 NW9       29.94S
EAU CLAIRE     CLOUDY    72  68  87 N7        29.90F
MENOMONIE      PTSUNNY   69  64  84 NW9       29.93S
NEW RICHMOND   CLOUDY    60  58  93 N12       29.98R
OSCEOLA        CLOUDY    60  60 100 N8        30.01R
$$

WIZ003>005-009-010-017-018-252300-
NORTH CENTRAL WISCONSIN

CITY           SKY/WX    TMP DP  RH WIND       PRES   REMARKS
MANITOWISH WTR NOT AVBL
ARBOR VITAE      N/A     67  63  89 NE3       29.93F
WOODRUFF         N/A     67  63  89 NE3       29.93F
RHINELANDER    MOSUNNY   81  63  54 SW7       29.94R HX  82
EAGLE RIVER    MOSUNNY   80  58  46 SW6       29.93R HX  81
LAND O LAKES   MOSUNNY   74  65  72 N9        29.95R
PHILLIPS       CLOUDY    73  68  85 S6        29.92R
TOMAHAWK       PTSUNNY   79  63  56 CALM      29.93R HX  81
MEDFORD        CLOUDY    80  65  61 S7        29.91S HX  82
MERRILL        PTSUNNY   82  65  56 SW3       29.92R HX  84
$$

WIZ029-030-035-036-043>047-252300-
CENTRAL WISCONSIN

CITY           SKY/WX    TMP DP  RH WIND       PRES   REMARKS
WAUSAU         MOSUNNY   82  63  52 SW5       29.90R HX  83
MOSINEE        PTSUNNY   81  64  57 S8        29.92S HX  82
MARSHFIELD     CLOUDY    76  63  64 SW15      29.92R
STEVENS POINT  MOSUNNY   82  62  51 S6        29.91R HX  83
WAUPACA        SUNNY     86  61  42 S7        29.90S HX  86
WAUTOMA        PTSUNNY   88  64  44 SE7       29.89F HX  89
WISC RAPIDS    CLOUDY    79  63  57 W16G28    29.92R HX  80
CAMP DOUGLAS   LGT RAIN  70  63  78 W6        29.92F
$$

WIZ011>013-019>022-031-037>040-048>050-252300-
NORTHEAST WISCONSIN

CITY           SKY/WX    TMP DP  RH WIND       PRES   REMARKS
ANTIGO         SUNNY     79  62  55 S6        29.94R HX  81
SHAWANO        SUNNY     88  60  38 S7        29.89S HX  88
OCONTO         SUNNY     82  65  56 SE9       29.89F HX  84
STURGEON BAY   SUNNY     79  62  56 S9        29.94S HX  80
GREEN BAY      MOSUNNY   86  66  51 SE13      29.90F HX  88
MANITOWOC      SUNNY     77  65  66 S10       29.94S
APPLETON       MOSUNNY   86  55  35 S8        29.90F HX  84
CLINTONVILLE   MOSUNNY   88  59  37 S7        29.90R HX  87
OSHKOSH        SUNNY     86  63  45 S6        29.90F HX  87
$$

WIZ032>034-041-042-053>061-252300-
SOUTHWEST WISCONSIN

CITY           SKY/WX    TMP DP  RH WIND       PRES   REMARKS
LA CROSSE      CLOUDY    71  66  84 E6        29.90F
SPARTA         CLOUDY    65  64  96 SE3       29.91F
VIROQUA        CLOUDY    67  67  99 S6        29.95R
BOSCOBEL       CLOUDY    74  63  68 SW13G24   29.95R
PRAIRIE DU CHI LGT RAIN  68  65  88 E10       29.92F
PLATTEVILLE    MOSUNNY   87  62  42 SW7       29.92R HX  87
$$

WIZ056-057-062-063-064-067-068-252300-
SOUTH CENTRAL WISCONSIN

CITY           SKY/WX    TMP DP  RH WIND       PRES   REMARKS
REEDSBURG      DRIZZLE   73  65  78 NW14G23   29.90R
BARABOO/DELLS  MOSUNNY   84  60  44 SE6       29.90S HX  84
LONE ROCK      LGT RAIN  77  64  64 NW18G28   29.91R
MINERAL POINT  SUNNY     88  55  33 S8        29.92R HX  86
MADISON        MOSUNNY   89  59  36 S10       29.89F HX  88
MIDDLETON      MOSUNNY   90  55  30 S10       29.90S HX  88
WATERTOWN      SUNNY     88  60  38 SE5       29.90S HX  88
MONROE         SUNNY     88  52  29 S12G17    29.91S HX  85
JANESVILLE     MOSUNNY   91  54  27 S6        29.90S HX  89
$$

WIZ051-052-058>065-066-070>072-252300-
SOUTHEAST WISCONSIN

CITY           SKY/WX    TMP DP  RH WIND       PRES   REMARKS
MILWAUKEE      MOSUNNY   85  60  42 SE14      29.93S HX  85
WAUKESHA       PTSUNNY   84  55  37 SE12      29.94S HX  83
MILWAUKEE/TIMM MOSUNNY   86  66  51 SE13      29.93F HX  88
RACINE         SUNNY     83  63  50 S13       29.95S HX  84
BURLINGTON     SUNNY     86  59  39 SE12G17   29.92S HX  86
KENOSHA        SUNNY     85  58  39 SE13      29.94S HX  84
FOND DU LAC    SUNNY     87  59  38 S8        29.91S HX  86
SHEBOYGAN      SUNNY     80  64  58 S14       29.94S HX  82
WEST BEND        N/A     82  57  42 SE7       29.94R HX  82
JUNEAU         SUNNY     87  60  40 S6        29.93R HX  86
$$

LSZ147-162-252300-
LAKE SUPERIOR

STATION/POSITION TIME  TEMP    WIND        PRES    WAVE
                       AIR SEA DIR/SP/G            HT/PER
                 (UTC) (F)     (DEG/KT/KT) (MB)    (FT/S)
W MID LAKE BUOY  2150   59 57  360/  8/  8 1014.4F   0
DEVILS ISLAND    2200   60     320/  9/  9 1015.1F
SAXON HARBOR     2130   62     350/ 11/ 13 1014.6R
$$

LMZ867-665-643>646-252300-
LAKE MICHIGAN

STATION/POSITION TIME  TEMP    WIND        PRES    WAVE
                       AIR SEA DIR/SP/G            HT/PER
                 (UTC) (F)     (DEG/KT/KT) (MB)    (FT/S)
S GREEN BAY BUOY 2200   77 72  130/  8/ 10 1012.7
N MID LAKE BUOY  2150   70 68  180/  6/  8 1014.1F   1/ 4
NORTHPORT PIER   2140   77     160/  7/ 11 1013.2S
KEWAUNEE LAKESHO 2154   68     180/  7/  8 1013.2S
SHEBOYGAN LAKESH 2200   71     180/  7/  8 1013.4S
PORT WASHINGTON  2140   76     160/  3/  4 1014.6S
ATWATER BUOY     2109   68 62  180/  6/  8 1013.8F
MILWAUKEE LAKESH 2200   68     140/ 12/ 13   N/A
S MID LAKE BUOY  2150   74 71  130/  6/  6 1013.8F   1
KENOSHA   LAKESH 2200   76     160/  9/ 12 1013.2
$$

TC  - TEMPERATURE IN CELSIUS
VSB - VISIBILITY IN STATUTE MILES
WCI - WIND CHILL INDEX
HX  - HEAT INDEX





USA.gov is the U.S. government's official web portal to all federal, state and local government web resources and services.